Date,TemperatureHighF,TemperatureAvgF,TemperatureLowF,DewpointHighF,DewpointAvgF,DewpointLowF,HumidityHigh,HumidityAvg,HumidityLow,PressureMaxIn,PressureMinIn,WindSpeedMaxMPH,WindSpeedAvgMPH,GustSpeedMaxMPH,PrecipitationSumIn
2013-3-1,74,57,40,49,44,38,97,66,36,30.42,30.22,9,0,9,0.00
2013-3-2,78,62,43,53,47,36,95,63,29,30.27,30.03,18,1,18,0.00
2013-3-3,71,63,55,53,48,42,77,60,37,30.10,29.97,12,2,12,0.00
2013-3-4,71,58,46,50,46,43,92,68,42,30.13,30.00,10,2,10,0.00
2013-3-5,73,57,43,51,43,34,93,64,31,30.05,29.88,17,2,17,0.00
2013-3-6,64,54,47,50,45,39,88,73,51,30.10,29.98,14,2,14,0.00
2013-3-7,61,52,47,49,45,42,93,78,52,29.99,29.82,11,2,11,0.02
2013-3-8,54,48,45,49,46,44,96,91,76,30.06,29.78,16,3,16,0.40
2013-3-9,61,50,44,49,45,42,97,84,58,30.32,30.06,10,1,10,0.00
2013-3-10,67,53,40,50,44,38,96,75,46,30.37,30.24,9,1,9,0.00
2013-3-11,71,55,38,52,46,37,97,75,45,30.27,30.09,9,0,9,0.00
2013-3-12,77,60,44,53,49,43,96,70,37,30.16,30.04,8,1,8,0.00
2013-3-13,82,63,45,57,52,44,100,70,33,30.18,30.02,10,0,10,0.00
2013-3-14,83,66,49,59,54,48,96,70,37,30.11,30.02,13,1,13,0.00
2013-3-15,79,64,52,59,54,48,88,70,42,30.07,29.97,15,2,15,0.00
2013-3-16,79,63,48,58,50,44,94,65,34,30.05,29.94,20,2,20,0.00
2013-3-17,75,62,50,48,43,36,77,51,28,30.09,29.98,20,4,20,0.00
2013-3-18,71,59,44,48,43,39,84,58,35,30.11,30.00,11,1,11,0.00
2013-3-19,78,63,48,53,48,44,89,61,35,30.13,30.01,26,2,26,0.00
2013-3-20,72,63,55,58,53,50,85,70,52,30.11,30.02,16,2,17,0.00
2013-3-21,70,59,51,53,48,40,91,69,40,30.05,29.93,17,6,17,0.00
2013-3-22,68,55,43,46,36,27,75,52,26,30.06,29.96,17,4,17,0.00
2013-3-23,70,54,38,43,37,30,80,54,33,30.14,30.01,10,1,10,0.00
2013-3-24,75,58,40,48,41,37,93,59,29,30.10,29.93,8,1,8,0.00
2013-3-25,76,60,45,50,46,41,87,62,36,29.99,29.86,8,0,8,0.00
2013-3-26,76,61,47,50,46,40,90,61,29,29.97,29.86,12,2,12,0.00
2013-3-27,78,64,50,54,49,45,89,63,35,29.98,29.88,16,2,16,0.00
2013-3-28,72,62,51,56,53,48,92,74,52,30.07,29.98,8,1,8,0.00
2013-3-29,81,64,49,57,51,46,94,66,32,30.10,29.95,8,0,9,0.00
2013-3-30,84,68,56,58,52,46,86,59,31,30.03,29.89,19,1,19,0.05
2013-3-31,74,64,55,60,53,46,97,71,39,30.09,29.95,15,2,16,0.17